Regional Weather Roundup
Issued by NWS Wakefield, VA

Home | Current Version | Previous Version | Text Only | Print | Product List | Glossary Off
Versions: 1 2 3 4 5 6 7 8 9 10 11 12 13 14 15 16 17 18 19 20 21 22 23 24 25 26 27 28 29 30 31 32 33 34 35 36 37 38 39 40 41 42 43 44 45 46 47 48 49 50

080
ASUS41 KAKQ 260314
RWRAKQ

REGIONAL WEATHER ROUNDUP
NATIONAL WEATHER SERVICE WAKEFIELD VA
1100 PM EDT FRI MAY 25 2018

Note: "fair" indicates few or no clouds below 12,000 feet with no
significant weather and/or obstructions to visibility. * = Denotes
station may not report precipitation (e.g., rain,snow,etc.),
thunder or fog.

VAZ042-051-052>054-056-260400-
NORTHERN VIRGINIA

CITY           SKY/WX    TMP DP  RH WIND       PRES   REMARKS
WASH NATIONAL  FAIR      75  66  73 S9        29.91S
DULLES         FAIR      77  67  71 S12       29.91S
FORT BELVOIR   FAIR      76  66  72 S3        29.92S
QUANTICO       FAIR      73  70  90 S8        29.93R
FREDERICKSBRG* FAIR      77  67  70 S8        29.93S
STAFFORD*      FAIR      76  67  73 S5        29.97S
WARRENTON      FAIR      77  64  65 S5        29.92S
CULPEPER*      MOCLDY    77  66  68 S3        29.94R
MANASSAS*      FAIR      75  67  76 S6        29.92S
LEESBURG*      FAIR      79  70  73 S9        29.91F
WINCHESTER     CLOUDY    73  64  73 SW6       29.93S
FRONT ROYAL*   MOCLDY    77  66  69 S6        29.91S
LURAY*         MOCLDY    77  64  65 SW9       29.94S
$$

VAZ048-049-060>072-079>083-260400-
CENTRAL AND SOUTH CENTRAL VIRGINIA

CITY           SKY/WX    TMP DP  RH WIND       PRES   REMARKS
RICHMOND       FAIR      71  65  81 S6        29.96R
CHESTERFIELD*  FAIR      72  66  81 S3        29.97R
PETERSBURG*    FAIR      67  65  91 CALM      29.98R
HANOVER        FAIR      76  65  68 S6        29.96S
TAPPAHANNOCK*  FAIR      72  66  81 S5        29.96S
QUINTON*       FAIR      74  67  78 S6        29.96R
CHARLOTTSVILLE FAIR      75  67  76 S10       29.94S
GORDONSVILLE*  FAIR      71  70  96 CALM      29.94F
ORANGE*        FAIR      72  64  78 S3        29.94F
LOUISA*        FAIR      73  66  79 S5        30.00R
BUMPASS*       FAIR      72  66  83 CALM      29.96R
FARMVILLE*     FAIR     N/A N/A N/A CALM      29.96S
CREWE*         FAIR      70  70 100 CALM      29.97S
FORT PICKETT*  FAIR      71  68  90 S12       29.98S
CHASE CITY*    FAIR      73  69  85 CALM      29.99S
CLARKSVILLE*   FAIR      72  70  94 S3        29.99R
SOUTH HILL*    FAIR      71  69  95 S5        30.04S
LAWRENCEVILLE* FAIR      72  67  84 CALM      29.98S
EMPORIA*       FAIR      72  68  88 CALM      30.00R
$$

VAZ088>098-260400-
SOUTHEAST VIRGINIA

CITY           SKY/WX    TMP DP  RH WIND       PRES   REMARKS
NORFOLK        FAIR      77  70  79 S12       29.97S
VIRGINIA BEACH FAIR      75  70  84 S10       29.97S
NORFOLK NAVAL  FAIR      77  68  73 S10G18    29.98S
WEST POINT*    FAIR      74  65  73 CALM      29.97S
SALUDA*        FAIR      74  67  77 S3        29.95F
NEWPORT NEWS   FAIR      77  68  73 S13       29.97S
LANGLEY AFB    FAIR      77  69  77 W9        29.97S
FORT EUSTIS    FAIR      77  69  75 S7        29.95R
WILLIAMSBURG*  FAIR      79  64  61 S7        29.98R
HR EXEC AP*    FAIR      75  69  81 S8        29.99R
FRANKLIN*      FAIR      74  67  80 S7        29.99S
US460-WAKEFLD  FAIR      74  66  76 S3        29.97S
$$

VAZ020-022-025-037-045-260400-
WEST CENTRAL AND SOUTHWEST VIRGINIA

CITY           SKY/WX    TMP DP  RH WIND       PRES   REMARKS
STAUNTON*      FAIR      70  64  80 S3        29.99S
WAYNESBORO*    FAIR      70  65  84 CALM      29.99S
HOT SPRINGS VA FAIR      65  62  89 SW15      30.11S
LYNCHBURG      FAIR      70  66  87 CALM      29.99R
DANVILLE       CLOUDY    71  68  90 S3        30.00R
SOUTH BOSTON*  FAIR      73  67  82 S5        29.99R
MARTINSVILLE   FAIR      70  66  89 CALM      30.04S
ROANOKE        FAIR      74  64  71 W6        30.02R
BLACKSBURG     FAIR      68  63  84 CALM      30.09R
DUBLIN*        FAIR      69  64  82 CALM      30.07R
MARION*        FAIR      67  65  91 CALM      30.09S
HILLSVILLE*    MOCLDY    65  63  92 S8        30.08S
RICHLANDS*     FAIR      70  50  48 S5        30.07R
WISE*          FAIR      68  63  83 S3        30.07R
ABINGDON*      FAIR      70  64  83 CALM      30.04R
$$

MDZ021>025-VAZ099-100-260400-
SOUTHERN MARYLAND AND THE DELMARVA PENINSULA

CITY           SKY/WX    TMP DP  RH WIND       PRES   REMARKS
PATUXENT RIVER FAIR      76  66  71 VRB5      29.93S
BAY BRIDGE APT FAIR      75  66  73 S9        29.91F
LEONARDTOWN    FAIR      72  64  78 S6        29.95F
DOVER          FAIR      73  62  68 S12       29.91S
GEORGETOWN     FAIR      71  64  78 SW9       29.94S
EASTON         FAIR      75  66  72 S8        29.96F
CAMBRIDGE      CLEAR     73  68  83 S6        29.93F
SALISBURY      FAIR      69  66  90 S6        29.94F
TANGIER        FAIR      75  73  94 S10       29.95F
OCEAN CITY     FAIR      71  69  93 SW9       29.95F
WALLOPS ISLAND FAIR      72  70  93 S10       29.96S
ACCOMACK*      FAIR      72  69  93 S6        29.96S
$$

NCZ012>017-030>032-260400-
NORTH CENTRAL AND EASTERN NORTH CAROLINA

CITY           SKY/WX    TMP DP  RH WIND       PRES   REMARKS
ROANOKE RAPIDS FAIR      72  70  94 CALM      30.00R
RALEIGH        FAIR      75  69  81 S9        30.01R
ELIZABETH CITY FAIR      76  71  85 S10       30.00S
AHOSKIE*       FAIR      72  69  89 S5        30.00S
EDENTON*       FAIR      77  70  78 SW10      30.02R
CURRITUCK*     NOT AVBL
KILL DEVIL HLS FAIR      74  70  86 S6        30.01S
MANTEO         FAIR      75  70  85 SW14      30.02F
CAPE HATTERAS  FAIR      75  72  90 SW9       30.04S
TARBORO*       NOT AVBL
GOLDSBORO      FAIR      73  71  93 S3        30.01R
WASHINGTON     FAIR      73  68  85 CALM      30.02S
GREENVILLE     FAIR      73  70  88 S10       30.03S
NEW BERN       FAIR      71  70  96 S3        30.04S
WILMINGTON     FAIR      73  70  90 S3        30.03S
$$

VAZ048-260400-
ELSEWHERE

CITY           SKY/WX    TMP DP  RH WIND       PRES   REMARKS
HARRISBURG PA  FAIR      79  64  60 SW5       29.86F
BALTIMORE      FAIR      77  66  68 S3        29.90S
ANNAPOLIS      FAIR      76  69  79 S6        29.91S
ANDREWS AFB    FAIR      75  65  70 S10       29.91F
PHILADELPHIA   FAIR      76  63  64 SW16G23   29.89S
HENDERSON NC   FAIR      70  65  85 S7        30.01R
GREENSBORO     FAIR      72  68  87 SW9       30.02R
ROCKY MOUNT    FAIR      73  70  90 S6        30.01R
$$

VAZ100-260400-
MARINE

STATION/POSITION TIME  TEMP    WIND        PRES    WAVE   SWELL
                       AIR SEA DIR/SP/G            HT/PER HT/PER
                 (UTC) (F)     (DEG/KT/KT) (MB)    (FT/S) (FT/S)
BRANDYWINE LGT   0248   72     220/ 16/ 18 1013.6F
CAPE MAY NJ      0248   71 67  200/  7/ 10 1013.0S
LEWES DE         0248   73 67  220/  6/ 10 1013.5S
15NM E FENWICK I 0250   66 64  200/ 16/ 17 1014.5R   3/ 4   2/ 8
OCEAN-CITY-INLET 0248   67 66  210/ 12/ 13 1014.8F
WACHAPREAGUE VA  0248   74 78  160/  5/  6 1014.5F
THOMAS POINT MD  0300   73 69  170/ 14/ 15 1013.7F
GOOSES REEF MD   0300   74     170/ 10/ 10 1013.7    1/ 3
COVE POINT MD    0248   74     200/  9/ 11 1014.1F
SOLOMONS ISLAND  0248   74 73  190/  5/  7 1013.3F
BISHOPS HEAD MD  0248   75 77  190/ 11/ 13 1014.2F
PINEY POINT MD   0248          200/  6/  7   N/A
POTOMAC MD       0300   75 74  210/  8/ 10 1013.2    1/ 2
CAMBRIDGE MD     0248   74 74              1014.6F
LEWISETTA VA     0248   75 77  230/  5/  7 1014.0S
RAPPAHANNOCK LGT 0248          180/ 15/ 16 1015.1S
STINGRAY PT      0250   76     240/  6/  6 1014.1R
YORK RVR RNG VA  0248   78     210/ 13/ 15 1015.2S
YORKTOWN VA      0248   77 75  190/  7/ 10 1014.2S
DOMINION TERM VA 0248   77     190/ 11/ 12 1015.2S
KIPTOPEKE VA     0248      72  190/  9/ 10   N/A
CAPE HENRY VA    0248   76     190/  8/ 13 1013.6S
WILLOUBY STN VA  0248   77     200/ 15/ 17 1014.3S
S CRANEY ISL VA  0248   77     200/  9/ 12 1015.0R
CAPE HENRY BUOY  0230      73                N/A     2/ 8
1ST LANDING BUOY 0300   75 73  210/ 12/ 14 1014.6    1/ 3
64NM E OF VA BCH 0250   71 69  200/ 12/ 14 1016.7F   3/ 9   2/ 9
DUCK PIER NC     0248   76 70  190/ 15/ 20 1015.5F
44100 DUCK FRF   0245      72                N/A     2/ 9
44056 DUCK FRF   0230      72                N/A     2/ 9
OREGON INLET NC  0236   77 80  190/ 17/ 20 1016.6F
HATTERAS NC      0248   75 78  190/  3/  7 1016.9F
DIAMOND SHLS NC  0250   77     190/ 14/ 16 1017.6F   3/ 9   2/ 9
CAPE LOOKOUT NC  0300          210/  7/  9 1017.2F
$$




USA.gov is the U.S. government's official web portal to all federal, state and local government web resources and services.